Search your local weather  

 

Hazardous Weather Conditions

No active alerts for HOUSTON, TEXAS

Current Conditions: HOUSTON, TEXAS

Fair


79.0 F

Last Updated on Aug 22 2019, 7:53 am CDT
Humidity: 85%
Wind Speed: N 0.0 mph
Barometer 29.98 in
Dewpoint: 73.9 F
Visibility: 10.00 mi
Precip: --
Heat Index: NA
Wind Chill: NA
Current conditions at:

Houston, Hooks Memorial Airport, TX (KDWH)

Lat: 30.0675 Lon: -95.55611

Local Radar Image active severe weather and emergency alerts image image weather storm and storm spotter reports image weather observation monitoring service image
Local
Radar
Active
Alerts
Storm Reports Weather
Monitoring

Weather Alert Notification Services


ialert severe weather and emergency alerts by text message and email ialert daily weather forecast by email and text message service ialert real-time weather-observation monitoring and alert notification service ialert storm report monitoring alert notification

Observation History for HOUSTON, TEXAS


Time Wind
(mph)
Vis
(mi)
Weather Precip (in) Temperature (F) Relative
Humidity
Wind
Chill
(°F)
Heat
Index
(°F)
Pressure
Air Dwpt altimeter
(in)
sea level
(mb)
7:53 am CDT N 0.0 10.00 Fair -- 79.0 73.9 85% NA NA 29.98 1015.1
6:53 am CDT N 0.0 9.00 Fair -- 75.0 72.0 90% NA NA 29.96 1014.3
5:53 am CDT N 0.0 10.00 Fair -- 75.0 72.0 90% NA NA 29.96 1014.2
4:53 am CDT N 0.0 10.00 Fair -- 75.0 72.0 90% NA NA 29.94 1013.7
3:53 am CDT S 3.5 10.00 Fair -- 78.0 73.0 85% NA NA 29.95 1014.0
1:53 am CDT S 3.5 10.00 Fair -- 79.0 73.0 82% NA NA 29.96 1014.4
2:53 am CDT S 3.5 10.00 Fair -- 79.0 73.0 82% NA NA 29.96 1014.2
12:53 am CDT S 3.5 10.00 Fair -- 80.0 73.0 79% NA 84 29.97 1014.5
11:53 pm CDT S 3.5 10.00 Fair -- 81.0 72.0 74% NA 85 29.98 1014.8
10:53 pm CDT 3.5 10.00 Fair -- 83.0 71.1 67% NA 88 29.98 1015.1
9:53 pm CDT 5.8 10.00 Fair -- 84.0 70.0 63% NA 88 29.97 1014.5
8:53 pm CDT S 4.6 10.00 Fair -- 86.0 69.1 57% NA 90 29.95 1014.0
7:53 pm CDT S 8.1 10.00 Fair -- 87.0 69.1 55% NA 91 29.94 1013.7
6:53 pm CDT S 5.8 10.00 Fair -- 90.0 69.1 50% NA 95 29.94 1013.6
5:53 pm CDT S 6.9 10.00 Fair -- 91.0 68.0 47% NA 95 29.94 1013.7
4:53 pm CDT S 8.1 G 19.6 10.00 A Few Clouds -- 90.0 70.0 52% NA 95 29.96 1014.2
3:53 pm CDT N 0.0 10.00 Partly Cloudy -- 94.0 68.0 43% NA 99 29.95 1014.0
12:53 pm CDT SE 4.6 10.00 Partly Cloudy -- 91.0 70.0 50% NA 97 30.03 1016.8
1:53 pm CDT SE 4.6 10.00 Partly Cloudy -- 94.0 68.0 43% NA 99 30.00 1015.7
11:53 am CDT 3.5 10.00 Mostly Cloudy -- 90.0 72.0 56% NA 97 30.06 1017.6
10:53 am CDT S 4.6 10.00 Fair -- 89.0 73.9 61% NA 98 30.06 1017.5
9:53 am CDT SW 5.8 10.00 Mostly Cloudy -- 84.0 73.9 72% NA 91 30.04 1017.0
8:53 am CDT SW 5.8 10.00 Fair -- 83.0 75.0 77% NA 90 30.03 1016.6

Regional Weather Observation

John Dunn Helistop, TX (KMCJ)

Fair
81.0 F

Houston, Houston Hobby Airport, TX (KHOU)

Partly Cloudy
83.0 F

Houston Southwest Airport, TX (KAXH)

Fair
76.0 F

Conroe, Montgomery County Airport, TX (KCXO)

Fair
75.0 F

Houston, Pearland Regional Airport, TX (KLVJ)

A Few Clouds
80.0 F

Cleveland, TX (K6R3)

Fair
75.0 F